Location: Unspecified
(0.0000°N, 0.0000°E)
Time: 11:56:57
(UTC+00:00)

Envisat - Pass Details

Date: 08 October 2022
Orbit: 763 x 765 km, 98.2° (Epoch: 08 December)

Event Time Altitude Azimuth Distance (km) Brightness Sun altitude
Rises 02:46:11 0° 50° (NE) 3,217 6.6 -45.1°
Reaches altitude 10° 02:50:02 10° 80° (E) 2,295 6.0 -44.1°
Maximum altitude 02:51:56 12° 103° (ESE) 2,154 5.9 -43.6°
Drops below altitude 10° 02:53:50 10° 125° (SE) 2,298 6.0 -43.2°
Sets 02:57:40 0° 155° (SSE) 3,226 6.6 -42.2°
